CAPE
0 0 0 0 0 0 0 0 0 0 0 0 0 0 0 0 0 0 0 0 0 0 0 0 0 0 0 0 0 0 3 50 140 423 670 612 475 12 454 238 159 218 59 3 46
0 0 0 0 0 0 0 0 0 0 0 0 0 0 0 0 0 0 0 0 0 0 0 0 0 0 0 0 0 1 58 23 49 126 520 618 533 296 440 244 215 224 256 310 281
0 0 0 0 0 0 0 0 0 0 0 0 0 0 0 0 0 0 0 0 0 0 0 0 0 0 0 0 3 0 62 27 95 313 641 708 611 624 410 251 218 267 377 490 406
0 0 0 0 0 0 0 0 0 0 0 0 0 0 0 0 0 0 0 0 0 0 0 0 0 0 0 2 0 36 97 161 281 540 693 695 660 758 352 374 233 284 405 562 511
0 0 0 0 0 0 0 0 0 0 0 0 0 0 0 0 0 0 0 0 0 0 0 0 0 0 0 12 3 44 163 223 220 352 469 626 495 763 693 224 357 462 435 423 476
1 0 1 0 0 0 0 0 0 0 0 0 0 0 0 0 0 0 0 0 0 0 0 0 0 0 0 0 5 9 249 209 185 814 612 780 986 876 522 249 341 387 380 428 442
1 1 1 1 0 0 0 0 0 0 0 0 0 0 0 0 0 0 0 0 0 0 0 0 0 0 0 0 0 3 247 195 512 1001 1022 1055 822 226 427 261 355 349 302 354 450
0 1 1 1 1 0 0 0 0 0 0 0 0 0 0 0 0 0 0 0 0 0 0 0 0 0 0 0 1 239 247 282 500 818 1040 437 299 650 516 270 265 344 251 289 404
0 1 0 1 0 0 0 0 0 0 0 0 0 0 0 0 0 0 0 0 0 0 0 0 0 0 0 0 0 141 152 142 376 480 491 211 343 780 673 426 272 141 214 282 328
1 1 1 1 1 0 0 0 0 0 0 0 0 0 0 0 0 0 0 0 0 0 0 0 0 0 0 0 0 0 14 114 214 381 207 249 243 755 702 518 269 203 98 147 224
1 1 1 1 1 0 0 0 0 0 0 0 0 0 0 0 0 0 0 0 0 0 0 0 0 0 0 0 0 0 0 3 69 209 163 153 209 510 812 602 357 243 81 64 139
1 1 1 1 0 0 0 0 0 0 0 0 0 0 0 0 0 0 0 0 0 0 0 0 0 0 0 0 0 0 0 1 1 31 155 221 282 454 768 611 424 351 261 61 118
1 1 1 2 0 0 0 0 0 0 0 0 0 0 0 0 0 0 0 0 0 0 0 0 0 0 0 0 6 0 0 0 0 62 91 276 376 444 405 387 287 274 269 181 221
1 1 2 0 0 0 0 0 0 0 0 0 0 0 0 0 0 0 0 0 0 0 0 0 0 0 0 0 2 6 1 0 0 19 10 220 61 365 464 427 352 273 248 243 172
0 0 1 3 0 0 0 0 0 0 0 0 0 0 0 0 0 0 0 0 0 0 0 0 0 0 0 0 1 13 0 0 0 0 0 37 29 23 435 526 412 341 220 243 247
1 2 1 0 0 0 0 0 0 0 0 0 0 0 0 0 0 0 0 0 0 0 0 0 0 0 0 0 0 0 0 0 0 0 0 0 0 0 105 180 413 203 211 148 210
0 1 1 0 0 0 0 0 0 0 0 0 0 0 0 0 0 0 0 0 0 0 0 0 0 0 0 0 0 0 0 0 0 0 0 0 3 4 79 89 277 260 96 38 91
0 0 0 0 0 0 0 0 0 0 0 0 0 0 0 0 0 0 0 0 0 0 0 0 0 0 0 0 0 0 0 0 0 0 0 6 2 59 32 58 167 169 132 80 126
0 0 0 0 0 0 0 0 0 0 0 0 0 0 0 0 0 0 0 0 0 0 0 0 0 0 0 0 0 0 0 0 0 0 0 3 33 25 18 55 183 226 172 77 127
0 0 0 0 0 0 0 0 0 0 0 0 0 0 0 0 0 0 0 0 0 0 0 0 0 0 0 0 0 0 0 0 0 0 0 15 36 15 48 35 123 275 294 83 72
0 0 0 0 0 0 0 0 0 0 0 0 0 0 0 0 0 0 0 0 0 0 0 0 0 0 0 16 0 0 0 0 0 0 0 0 6 14 13 65 110 295 249 267 161
0 0 0 0 0 0 0 0 0 0 0 0 0 0 0 0 0 0 0 0 0 0 0 0 0 0 0 0 0 0 0 0 0 0 0 0 18 98 31 155 198 230 243 214 149
0 0 0 0 0 0 0 0 0 0 0 0 0 0 0 0 0 0 0 0 0 0 0 0 0 0 0 0 0 0 0 0 0 0 0 0 2 36 151 194 228 204 292 316 262
0 81 0 0 0 0 0 0 0 0 0 0 0 0 0 0 0 0 0 0 0 0 0 0 0 0 0 0 0 0 0 0 0 0 0 0 0 22 83 3 0 174 363 84 202
3 182 57 1 0 0 0 0 0 0 0 6 0 5 0 2 0 0 0 0 0 0 3 23 28 5 0 0 0 0 0 0 0 0 0 0 4 44 152 21 0 0 3 0 0
63 33 15 31 21 191 84 129 15 0 17 46 23 34 0 9 5 0 0 0 8 5 15 0 10 0 0 0 21 0 0 0 0 0 0 20 8 33 40 48 4 11 307 484 108
0 0 1 4 98 152 184 136 84 0 0 4 47 3 8 3 0 0 7 7 1 5 6 19 0 0 0 0 0 0 0 0 0 0 107 0 31 51 30 128 124 16 34 521 541
CIN
0 0 0 0 0 0 0 0 0 0 0 0 0 0 0 0 0 0 0 0 0 0 0 0 0 0 0 0 0 0 -40 -124 -42 -30 -37 -59 -48 -86 -61 -67 -91 -73 -117 -86 -188
0 0 0 0 0 0 0 0 0 0 0 0 0 0 0 0 0 0 0 0 0 0 0 0 0 0 0 0 0 -11 -90 -87 -58 -45 -50 -56 -42 -93 -60 -84 -84 -106 -111 -125 -144
0 0 0 0 0 0 0 0 0 0 0 0 0 0 0 0 0 0 0 0 0 0 0 0 0 0 0 0 -24 0 -50 -55 -56 -46 -60 -74 -43 -55 -49 -53 -79 -97 -106 -86 -96
0 0 0 0 0 0 0 0 0 0 0 0 0 0 0 0 0 0 0 0 0 0 0 0 0 0 0 -19 0 -29 -41 -33 -57 -78 -91 -87 -83 -44 -37 -36 -83 -100 -129 -114 -69
0 0 0 0 0 0 0 0 0 0 0 0 0 0 0 0 0 0 0 0 0 0 0 0 0 0 0 -48 -18 -35 -46 -45 -60 -81 -107 -132 -93 -37 -18 -48 -76 -96 -102 -78 -84
0 0 0 0 0 0 0 0 0 0 0 0 0 0 0 0 0 0 0 0 0 0 0 0 0 0 0 0 -29 -34 -43 -52 -80 -61 -107 -81 -82 -46 -58 -91 -60 -70 -70 -77 -92
0 0 0 0 0 0 0 0 0 0 0 0 0 0 0 0 0 0 0 0 0 0 0 0 0 0 0 0 0 -31 -40 -59 -67 -81 -105 -109 -101 -88 -95 -114 -61 -50 -56 -80 -65
0 0 0 0 0 0 0 0 0 0 0 0 0 0 0 0 0 0 0 0 0 0 0 0 0 0 0 0 -33 -50 -58 -50 -87 -94 -115 -125 -96 -121 -126 -132 -108 -58 -49 -77 -66
0 0 0 0 0 0 0 0 0 0 0 0 0 0 0 0 0 0 0 0 0 0 0 0 0 0 0 0 0 -45 -39 -59 -74 -108 -94 -115 -88 -134 -130 -99 -102 -165 -128 -110 -97
0 0 0 0 0 0 0 0 0 0 0 0 0 0 0 0 0 0 0 0 0 0 0 0 0 0 0 0 0 0 -25 -75 -52 -99 -148 -91 -66 -136 -163 -142 -111 -123 -195 -175 -134
0 0 0 0 0 0 0 0 0 0 0 0 0 0 0 0 0 0 0 0 0 0 0 0 0 0 0 0 0 0 0 -30 -42 -103 -162 -105 -67 -119 -166 -168 -150 -136 -176 -205 -175
0 0 0 0 0 0 0 0 0 0 0 0 0 0 0 0 0 0 0 0 0 0 0 0 0 0 0 0 0 0 0 -7 -33 -68 -136 -110 -73 -116 -149 -166 -170 -140 -166 -208 -199
0 0 0 0 0 0 0 0 0 0 0 0 0 0 0 0 0 0 0 0 0 0 0 0 0 0 0 0 -89 0 -11 0 -7 -96 -114 -92 -67 -111 -164 -175 -186 -174 -167 -195 -177
0 0 0 0 0 0 0 0 0 0 0 0 0 0 0 0 0 0 0 0 0 0 0 0 0 0 0 0 -50 -22 -29 0 0 -43 -28 -91 -34 -85 -142 -152 -182 -186 -220 -169 -211
0 0 0 0 0 0 0 0 0 0 0 0 0 0 0 0 0 0 0 0 0 0 0 0 0 0 0 0 -49 -20 0 0 0 0 0 -76 -50 -57 -152 -145 -190 -207 -212 -212 -263
0 0 0 0 0 0 0 0 0 0 0 0 0 0 0 0 0 0 0 0 0 0 0 0 0 0 0 0 0 0 0 0 0 0 0 0 0 0 -69 -97 -167 -242 -222 -235 -272
0 0 0 0 0 0 0 0 0 0 0 0 0 0 0 0 0 0 0 0 0 0 0 0 0 0 0 0 0 0 0 0 0 0 0 0 -21 -24 -229 -347 -246 -188 -332 -328 -274
0 0 0 0 0 0 0 0 0 0 0 0 0 0 0 0 0 0 0 0 0 0 0 0 0 0 0 0 0 0 0 0 0 0 0 -56 -29 -64 -397 -472 -334 -316 -286 -285 -258
0 0 0 0 0 0 0 0 0 0 0 0 0 0 0 0 0 0 0 0 0 0 0 0 0 0 0 0 0 0 0 0 0 0 0 -47 -135 -286 -371 -332 -330 -348 -325 -265 -252
0 0 0 0 0 0 0 0 0 0 0 0 0 0 0 0 0 0 0 0 0 0 0 0 0 0 0 0 0 0 0 0 0 0 0 -40 -60 -78 -191 -220 -352 -283 -254 -317 -406
0 0 0 0 0 0 0 0 0 0 0 0 0 0 0 0 0 0 0 0 0 0 0 0 0 0 -2 -54 0 0 0 0 0 0 0 0 -34 -211 -220 -258 -221 -250 -367 -320 -280
0 0 0 0 0 0 0 0 0 0 0 0 0 0 0 0 0 0 0 0 0 0 0 0 0 0 0 -4 0 0 0 0 0 0 0 0 -60 -433 -386 -342 -357 -310 -325 -310 -325
0 0 0 0 0 0 0 0 0 0 0 0 0 0 0 0 0 0 0 0 0 0 0 0 0 0 0 0 -14 0 0 0 0 0 0 0 -35 -570 -476 -500 -500 -445 -428 -426 -446
0 -140 0 0 0 0 0 0 0 0 0 0 0 0 0 0 0 0 0 0 0 0 0 0 0 0 0 0 0 0 0 0 0 0 0 0 0 -302 -396 -378 0 -521 -384 -508 -466
-26 -146 -324 -10 0 0 0 0 0 0 0 -184 0 -179 0 -57 0 0 0 0 0 0 -120 -101 -36 -87 0 0 0 0 0 0 0 0 0 0 -66 -94 -240 -365 0 0 -375 0 0
-214 -261 -349 -246 -309 -174 -349 -197 -142 0 -219 -122 -187 -194 0 -94 -128 -1 -2 -1 -92 -146 -118 -2 -29 0 0 0 -155 0 0 0 0 0 -2 -131 -100 -236 -329 -502 -95 -468 -323 -202 -286
0 0 -297 -283 -176 -174 -186 -193 -88 0 -70 -188 -238 -140 -170 -228 -65 0 -170 -297 -78 -85 -147 -144 0 0 0 0 0 0 0 0 0 0 -114 0 -108 -229 -216 -244 -317 -104 -421 -143 -119
Wind_Speed
20 21 21 22 22 23 23 23 24 24 24 24 24 24 24 24 24 18 20 19 19 17 16 11 12 12 15 14 18 17 16 16 17 17 16 18 17 13 16 20 20 17 19 27 27
21 21 22 23 23 24 24 24 24 24 24 24 24 24 24 23 21 22 24 24 23 19 16 16 16 15 13 10 15 13 14 15 17 19 19 18 16 18 17 20 19 19 20 23 26
21 22 23 24 24 25 25 25 25 25 24 25 24 24 23 21 18 13 16 17 19 19 17 17 16 17 14 10 12 13 15 15 14 19 20 19 18 17 18 18 21 20 23 25 27
22 22 23 24 25 25 26 25 25 25 24 24 24 24 23 16 11 12 15 14 15 17 17 16 16 16 11 11 11 13 13 17 17 20 21 21 22 19 18 15 20 21 23 25 28
23 23 24 24 25 26 26 26 25 25 24 24 23 23 18 18 23 21 18 15 15 15 16 15 15 13 13 11 11 9 11 18 21 20 21 22 21 21 16 16 20 23 24 26 28
24 24 24 25 25 26 26 26 26 25 25 24 23 22 18 25 19 18 20 19 17 16 18 16 15 16 12 14 11 9 8 15 17 15 18 20 23 22 21 22 22 24 26 27 26
24 25 25 25 26 26 27 27 27 26 25 24 22 20 21 29 18 25 25 22 19 19 19 17 17 16 17 13 16 9 10 7 10 13 13 18 19 21 23 24 24 25 25 25 25
25 25 26 26 26 26 27 28 27 26 25 23 21 18 24 21 26 30 25 26 23 20 20 20 16 18 14 15 11 6 4 7 11 13 15 15 16 17 21 24 23 24 26 25 24
25 26 26 26 26 26 27 28 27 26 23 20 19 18 24 23 24 26 24 24 23 20 20 20 16 14 12 15 7 4 11 8 9 17 14 14 15 16 20 21 22 23 24 24 24
26 26 27 27 26 26 26 25 21 21 18 17 20 21 21 15 17 18 20 20 21 22 22 17 15 14 13 11 15 12 5 10 8 18 15 15 15 18 21 20 21 21 22 22 24
27 27 27 27 26 24 21 18 19 21 22 24 18 24 23 21 18 18 15 17 18 21 20 19 19 19 19 19 16 13 15 9 10 18 12 13 17 17 21 21 21 20 19 21 22
27 27 27 26 25 24 20 17 16 19 25 31 33 31 30 23 21 19 14 14 15 23 16 21 24 20 20 23 21 15 15 23 25 15 15 9 14 16 18 20 22 20 20 21 19
27 27 27 26 25 19 17 18 21 22 23 26 25 27 21 9 13 25 5 10 17 18 19 21 26 20 24 23 20 18 21 20 23 6 14 7 12 17 15 18 23 21 19 18 18
27 27 26 26 18 17 16 18 22 12 21 20 18 23 12 12 20 15 3 12 18 16 19 24 25 25 25 25 17 20 17 23 8 5 7 6 15 18 13 16 20 21 17 16 15
27 26 25 21 19 15 14 21 15 15 18 15 14 14 9 6 15 8 13 21 15 14 16 22 21 22 26 26 17 22 22 23 15 9 11 11 20 18 4 11 17 22 18 16 11
27 26 24 17 18 20 21 19 12 16 18 15 11 11 9 14 14 18 12 19 20 23 26 31 27 27 26 28 25 23 22 18 15 15 19 16 13 20 2 16 12 17 18 16 10
28 27 23 20 17 17 19 13 15 16 16 14 14 11 7 9 15 16 7 5 6 13 24 28 30 28 22 25 19 13 14 20 21 19 19 18 20 23 19 26 5 11 4 5 7
29 27 20 20 18 19 15 14 17 15 17 18 13 9 7 10 16 8 14 16 21 23 16 20 23 24 19 21 25 19 18 19 20 18 19 23 23 23 18 20 6 6 10 13 13
25 18 20 21 10 19 14 17 16 15 15 16 11 10 14 18 13 9 14 31 32 11 14 13 18 20 19 27 21 17 18 16 19 20 21 21 20 19 15 17 11 9 9 14 16
21 20 20 13 1 11 17 20 19 16 17 16 12 13 16 16 18 14 7 27 35 35 34 20 21 18 21 14 13 14 13 18 18 19 22 21 21 20 13 11 11 8 10 5 5
19 17 17 5 8 15 23 21 22 25 20 16 16 20 21 21 21 23 20 22 34 33 12 12 16 20 19 15 12 14 18 17 15 16 20 22 19 16 8 8 7 9 9 5 3
16 14 12 7 13 18 24 24 22 27 24 26 23 24 22 24 27 28 35 19 33 10 7 11 15 26 23 18 15 12 14 15 19 21 19 17 17 13 7 8 10 11 13 12 13
14 14 11 16 15 19 23 27 25 28 25 20 22 27 28 24 23 30 34 34 31 21 15 8 20 18 14 18 16 15 16 14 14 14 17 13 11 6 7 7 10 11 13 20 20
14 14 14 19 20 20 23 28 25 22 24 23 26 25 23 20 22 24 27 20 27 32 16 8 15 12 12 15 13 14 16 14 14 15 14 13 10 4 4 7 10 10 12 18 19
15 15 16 17 24 27 26 29 29 26 22 20 21 20 22 20 18 18 17 15 14 10 9 10 11 11 12 12 14 13 12 12 17 14 14 13 8 9 4 6 10 12 14 14 11
16 17 18 20 19 21 20 22 26 25 22 21 18 18 15 19 18 10 11 11 9 11 12 16 12 10 14 16 14 19 15 14 16 9 8 6 8 13 11 9 10 11 11 11 11
17 17 18 18 19 19 20 21 22 19 27 20 21 16 8 6 5 4 3 4 7 9 13 16 10 14 15 18 17 14 17 14 12 11 4 7 10 6 8 10 9 10 9 10 11
Wind_Direction
292 286 283 282 281 282 284 283 284 285 285 284 283 280 278 278 277 282 250 227 222 230 248 326 55 81 130 98 141 100 41 61 85 63 44 95 80 45 83 96 147 170 111 121 116
295 289 284 282 282 283 284 284 285 285 284 285 284 281 278 281 279 255 226 215 217 237 251 251 319 28 57 72 100 55 39 74 88 81 82 97 91 101 91 106 104 65 91 112 120
299 292 287 284 282 283 283 283 283 284 283 286 285 281 275 277 281 273 241 235 232 232 255 281 278 311 332 359 55 91 86 67 45 86 79 79 82 118 99 120 125 105 115 125 131
302 296 289 285 283 282 283 282 281 281 282 282 284 281 271 289 276 272 252 254 252 246 267 279 314 311 357 354 325 36 45 71 76 84 80 77 98 111 114 124 128 120 122 126 140
303 298 293 286 283 282 281 280 279 279 279 281 284 284 290 275 249 253 258 256 261 270 272 296 306 318 330 311 312 13 46 82 87 83 75 79 80 86 122 93 118 118 123 134 142
302 299 294 289 283 281 280 277 275 275 275 279 283 283 294 246 264 260 253 263 266 273 268 272 286 267 275 302 339 8 43 79 72 49 63 61 76 79 92 96 113 128 136 140 143
301 299 296 292 285 280 277 274 272 272 272 276 284 298 285 205 266 250 253 255 261 264 263 261 273 281 288 303 308 32 76 19 26 40 27 48 40 81 107 111 117 131 140 147 151
300 298 296 293 287 280 274 269 266 267 268 273 292 307 253 261 252 238 248 248 254 257 261 255 291 271 298 315 335 10 42 47 84 70 92 272 65 109 116 118 118 136 144 150 155
300 298 297 293 288 282 275 268 261 264 270 287 298 302 251 264 255 245 248 248 251 258 263 267 288 282 304 296 336 22 108 23 85 137 99 131 78 124 128 130 130 134 148 156 161
300 299 298 295 289 285 278 271 280 277 284 296 287 280 272 300 278 264 252 253 252 254 255 272 282 286 300 309 284 289 117 316 73 148 138 144 162 125 139 136 139 145 147 155 164
298 298 298 294 289 288 292 294 288 279 269 261 278 261 265 285 292 263 266 260 260 255 257 268 267 262 272 278 295 319 291 304 150 165 128 148 163 132 144 154 155 147 152 158 167
297 297 297 293 287 282 285 291 294 283 268 248 235 240 247 278 274 265 266 260 257 249 265 257 247 257 275 259 273 291 298 269 261 165 150 117 153 142 147 160 166 161 162 166 158
295 295 295 291 283 288 286 283 282 285 276 264 263 256 273 317 294 244 253 252 251 249 254 252 240 266 263 259 277 283 285 291 289 19 298 21 323 168 155 170 186 177 176 166 158
292 293 294 290 290 287 281 284 277 305 280 271 268 259 275 297 276 265 220 243 248 248 250 245 246 252 258 258 280 278 290 290 2 21 320 332 316 190 163 173 182 181 167 163 155
287 287 287 287 281 280 293 284 284 296 274 287 275 284 283 302 292 281 255 239 245 247 251 245 252 263 260 250 280 273 296 302 313 332 320 312 301 316 133 181 188 190 176 168 147
281 279 279 289 275 264 273 277 291 280 270 282 281 282 272 270 278 249 256 239 243 245 244 241 255 258 258 258 270 283 300 319 325 312 300 317 316 313 159 199 187 183 178 170 148
281 274 272 270 272 270 276 286 276 269 278 276 272 274 269 268 259 261 244 191 222 254 250 246 243 252 275 271 293 310 318 290 298 300 291 318 324 310 310 293 219 188 268 165 152
282 270 279 270 272 270 277 274 262 273 269 283 270 256 260 266 258 270 252 155 246 244 258 252 249 256 277 281 274 284 294 285 293 302 300 318 313 316 332 320 30 119 167 166 171
284 291 281 270 177 265 269 260 259 266 287 286 270 248 258 251 262 265 258 182 200 164 255 262 262 263 278 289 281 278 284 298 301 304 307 313 322 330 339 342 21 113 148 172 178
290 284 275 291 106 274 263 258 256 264 286 284 258 265 263 257 251 264 276 217 200 208 214 251 256 283 300 296 303 281 275 295 302 305 305 309 311 321 343 4 19 71 149 162 306
296 286 284 295 276 269 256 255 257 257 280 278 265 269 264 258 255 250 257 247 174 207 199 257 270 269 310 310 304 297 291 302 310 313 310 309 317 333 7 16 24 19 16 358 256
292 284 283 271 273 268 259 249 260 262 269 264 268 259 257 263 252 248 208 251 163 167 165 259 284 265 283 281 306 329 311 315 299 301 312 318 323 339 29 20 14 2 357 352 333
291 282 273 270 275 271 262 251 260 259 261 259 262 263 257 258 261 242 232 224 224 247 250 272 278 280 297 281 289 314 316 327 328 322 314 331 340 15 35 29 5 7 359 335 334
290 282 274 267 273 277 269 255 254 261 260 254 261 261 263 259 257 259 245 263 251 244 258 270 279 277 285 297 314 315 312 321 320 319 322 332 355 50 29 8 4 14 4 349 343
284 279 273 272 264 262 263 249 250 255 252 264 261 264 260 262 268 261 250 259 264 259 245 263 274 298 307 310 313 325 325 316 302 313 319 319 355 359 41 29 11 9 8 7 22
275 271 273 272 276 274 260 251 248 249 242 265 255 264 267 260 270 252 231 236 250 256 259 267 283 300 296 307 324 318 315 322 307 317 344 15 356 341 354 30 20 24 34 35 49
276 275 277 271 273 269 262 258 252 243 231 264 259 254 260 282 295 277 257 265 272 280 283 284 290 289 293 306 316 319 329 327 329 334 30 343 342 11 2 8 27 30 36 52 56